Starlink 32384

operational
NORAD ID: 62146 Int'l Des: 2024-224 Owner: SPXS Country: US Constellation: starlink
LEOCIRCULAR

关于 Starlink 32384

正在加载描述...

实时位置

正在加载3D地球...

即将过境

高度历史

Altitude vs Time

uPlot chart will show altitude changes over time

两行轨道根数

1 62146U 24224H 25308.83388882 .00020607 00000-0 75584-3 0 9996
2 62146 42.9995 143.3363 0000441 214.9837 145.0986 15.27597924 53388
Epoch: Nov 4, 2025 • Age: 8 hours

当前状态

高度 495.8 km
速度 7.62 km/s
星下点 -42.24°S, 31.34°W
发射日期 Nov 30, 2024
运行时间 0.9 years
类型 internet

技术详情

分类 Payload
质量 730.00 kg
干质量 700.00 kg
总质量 730.00 kg
长度 0.30 m
直径 4.10 m
跨度 29.00 m
形状 Box + pan
制造商 SPXS
平台类型 Starlink V2M
阶段状态 In Orbit
所有者/国家 SPXS/US

大型星座

Loading constellations...